Weather observations for the past three days for
Nashville, Nashville International Airport
Imperial (Metric)
Date Time (cdt) Wind (mph) Vis. (mi.) Weather Sky Cond. Temperature (ºF) Relative Humidity Wind Chill (°F) Heat Index (°F) Pressure Precipitation (in)
Air Dwpt 6 hour altimeter (in) sea level (mb) 1 hr 3 hr 6 hr
Max. Min.
14 06:53 Calm 10.00 Mostly Cloudy BKN250 73.9 66 75 68 76% 30.01 1015.4
14 05:53 S 5 10.00 Mostly Cloudy BKN250 69.1 64 84% 30 1015.0
14 04:53 S 5 10.00 Partly Cloudy SCT250 69.1 64 84% 29.97 1014.2
14 03:53 S 6 10.00 A Few Clouds FEW250 69.1 64 84% 29.96 1013.7
14 02:53 S 5 10.00 Fair CLR 70 64 82% 29.97 1014.1
14 01:53 Calm 10.00 Fair CLR 73 64.9 76% 29.98 1014.4
14 00:53 Calm 10.00 Fair CLR 75 64.9 89.1 73.9 71% 77 29.99 1014.7
13 23:53 Calm 10.00 Fair CLR 75.9 64 67% 78 29.99 1014.8
13 22:53 Calm 10.00 Fair CLR 77 64 64% 79 29.97 1013.9
13 21:53 NW 5 10.00 Fair CLR 82 64 55% 84 29.97 1013.9
13 20:53 NW 3 10.00 Fair CLR 82.9 64 53% 84 29.95 1013.3
13 19:53 N 6 10.00 Fair CLR 84.9 63 48% 86 29.94 1013.0
13 18:53 NW 8 10.00 Partly Cloudy SCT060 89.1 63 93.9 88 42% 90 29.94 1013.3
13 17:53 NW 5 10.00 A Few Clouds FEW070 91 61 37% 91 29.95 1013.4
13 16:53 Vrbl 3 10.00 Partly Cloudy SCT070 93 61 34% 93 29.96 1013.7
13 15:53 Vrbl 6 10.00 Partly Cloudy SCT065 93 60.1 33% 93 29.96 1013.8
13 14:53 SW 6 10.00 Partly Cloudy SCT060 91.9 60.1 34% 92 29.97 1014.3
13 13:53 Vrbl 3 10.00 Partly Cloudy SCT060 90 62.1 39% 90 29.98 1014.7
13 12:53 E 3 10.00 A Few Clouds FEW065 89.1 62.1 89.1 66.9 41% 89 30 1015.2
13 11:53 E 6 10.00 A Few Clouds FEW060 87.1 61 42% 87 30 1015.4
13 10:53 Calm 10.00 Fair CLR 86 61 43% 86 30.01 1015.7
13 09:53 Calm 10.00 A Few Clouds FEW050 82 62.1 51% 83 30.02 1015.9
13 08:53 Calm 10.00 A Few Clouds FEW070 77 61 58% 79 30.03 1016.1
13 07:53 Calm 10.00 A Few Clouds FEW060 73 60.1 64% 30.02 1015.9
13 06:53 Calm 10.00 A Few Clouds FEW060 66.9 59 66.9 61 76% 30.01 1015.5
13 05:53 Calm 10.00 Partly Cloudy FEW060 SCT250 62.1 57 84% 30 1015.2
13 04:53 Calm 10.00 Fair CLR 62.1 57 84% 29.98 1014.6
13 03:53 Calm 10.00 Fair CLR 62.1 57 84% 29.97 1014.4
13 02:53 Calm 10.00 Fair CLR 63 57 81% 29.97 1014.4
13 01:53 Calm 10.00 Fair CLR 64 57 78% 29.98 1014.5
13 00:53 Calm 10.00 Fair CLR 66 57 82 66 73% 29.98 1014.5
12 23:53 Calm 10.00 Fair CLR 66.9 55.9 68% 29.99 1014.9
12 22:53 Calm 10.00 Fair CLR 69.1 55.9 63% 29.99 1015.1
12 21:53 N 6 10.00 A Few Clouds FEW250 73.9 55.9 54% 29.99 1015.0
12 20:53 N 7 10.00 Partly Cloudy SCT250 75 55.9 52% 78 29.99 1014.8
12 19:53 Calm 10.00 Partly Cloudy FEW180 SCT250 78.1 53.1 42% 79 29.99 1014.8
12 18:53 Calm 10.00 Mostly Cloudy BKN250 82 54 84 81 38% 81 29.99 1015.0
12 17:53 E 3 10.00 Mostly Cloudy SCT220 BKN250 82 52 35% 81 29.98 1014.8
12 16:53 S 6 10.00 Mostly Cloudy SCT200 BKN250 82 53.1 37% 81 29.99 1014.9
12 15:53 SE 7 10.00 Mostly Cloudy FEW200 BKN250 82 52 35% 81 29.99 1015.1
12 14:53 SE 6 10.00 Mostly Cloudy FEW019 BKN250 82.9 51.1 33% 81 30 1015.4
12 13:53 NW 3 10.00 Mostly Cloudy FEW190 BKN250 82 53.1 37% 81 30.02 1016.0
12 12:53 N 5 10.00 Mostly Cloudy FEW190 BKN250 82 53.1 82 63 37% 81 30.03 1016.4
12 11:53 E 7 10.00 Mostly Cloudy FEW200 BKN250 79 53.1 41% 79 30.05 1016.9
12 10:53 NE 8 10.00 Mostly Cloudy FEW190 BKN250 77 54 45% 78 30.05 1017.2
12 09:53 E 6 10.00 Mostly Cloudy BKN250 75 55 50% 78 30.06 1017.2
12 08:53 Vrbl 3 10.00 Mostly Cloudy BKN250 71.1 53.1 53% 30.06 1017.2
12 06:53 N 3 10.00 Mostly Cloudy BKN250 62.1 54 64 57 75% 30.04 1016.7
12 05:53 Calm 10.00 Mostly Cloudy BKN250 57.9 53.1 84% 30.03 1016.5
12 04:53 Calm 10.00 A Few Clouds FEW250 57 52 83% 30.02 1016.1
12 03:53 Calm 10.00 A Few Clouds FEW250 59 52 78% 30.02 1016.0
12 02:53 W 3 10.00 A Few Clouds FEW250 60.1 52 75% 30.01 1015.7
12 01:53 Calm 10.00 A Few Clouds FEW250 60.1 52 75% 30 1015.5
12 00:53 E 6 10.00 Mostly Cloudy BKN250 63 53.1 77 63 70% 30 1015.3
11 23:53 N 7 10.00 Mostly Cloudy BKN250 64.9 53.1 66% 30 1015.4
11 22:53 N 6 10.00 A Few Clouds FEW250 66.9 51.1 57% 30.01 1015.5
11 21:53 E 6 10.00 A Few Clouds FEW250 69.1 50 51% 30 1015.6
11 20:53 E 6 10.00 A Few Clouds FEW250 71.1 50 47% 29.99 1015.0
11 19:53 NE 7 10.00 Partly Cloudy SCT250 73 48.9 43% 29.97 1014.5
11 18:53 N 5 10.00 Partly Cloudy SCT250 78.1 48.9 81 75.9 36% 79 29.96 1014.1
11 17:53 N 10 10.00 A Few Clouds FEW250 79 50 36% 79 29.95 1013.9
11 16:53 N 9 10.00 A Few Clouds FEW250 80.1 48.9 34% 79 29.97 1014.2
11 15:53 N 8 10.00 A Few Clouds FEW250 79 48.9 35% 79 29.98 1014.6
11 14:53 NE 10 G 23 10.00 A Few Clouds FEW250 79 48 34% 79 29.99 1014.8
11 13:53 N 9 10.00 A Few Clouds FEW250 78.1 50 37% 79 30 1015.1
11 12:53 N 7 10.00 Partly Cloudy SCT250 77 51.1 77 61 40% 78 30.01 1015.6
11 11:53 N 13 G 20 10.00 A Few Clouds FEW250 75 48.9 40% 77 30.02 1015.9
11 10:53 N 5 10.00 Partly Cloudy FEW042 SCT250 73 51.1 46% 30.03 1016.4
11 09:53 NE 7 10.00 A Few Clouds FEW250 69.1 51.1 53% 30.03 1016.5
11 08:53 E 12 10.00 A Few Clouds FEW250 66.9 51.1 57% 30.03 1016.5
11 07:53 NE 9 10.00 A Few Clouds FEW250 64 51.1 63% 30.02 1016.2
Date Time (cdt) Wind (mph) Vis. (mi.) Weather Sky Cond. Air Dwpt Max. Min. Relative Humidity Wind Chill (°F) Heat Index (°F) altimeter (in) sea level (mb) 1 hr 3 hr 6 hr
6 hour
Temperature (ºF) Pressure Precipitation (in)